Location: lozzo di cadore
(46.4899°N, 12.4508°E)
Time: 18:08:07
(UTC+01:00)

ISS - Visible Passes

Search period start: 14 March 2026 00:00
Search period end: 24 March 2026 00:00
Orbit: 415 x 426 km, 51.6° (Epoch: 13 March)

Date Brightness Start Highest point End Pass type
(mag) Time Alt. Az. Time Alt. Az. Time Alt. Az.
14 Mar -3.5 18:59:00 10° SW 19:02:19 53° SSE 19:05:25 11° ENE visible
14 Mar -2.1 20:35:59 10° W 20:38:25 35° NW 20:38:25 35° NW visible
15 Mar -3.1 19:48:41 10° W 19:52:01 52° NNW 19:53:27 29° NE visible
15 Mar -0.3 21:26:12 10° WNW 21:26:27 12° WNW 21:26:27 12° WNW visible
16 Mar -3.5 19:01:25 10° WSW 19:04:49 70° NNW 19:08:13 10° ENE visible
16 Mar -2.0 20:38:53 10° WNW 20:41:21 30° NNW 20:41:21 30° NNW visible
17 Mar -2.5 19:51:31 10° WNW 19:54:42 36° N 19:56:10 24° NE visible
17 Mar -0.3 21:28:49 10° WNW 21:29:10 12° WNW 21:29:10 12° WNW visible
18 Mar -2.7 19:04:08 10° W 19:07:22 41° NNW 19:10:38 10° ENE visible
18 Mar -2.0 20:41:34 10° WNW 20:43:54 30° NNW 20:43:54 30° NNW visible
19 Mar -2.4 19:54:14 10° WNW 19:57:21 33° N 19:58:36 24° NE visible
19 Mar -0.4 21:31:13 10° WNW 21:31:35 12° WNW 21:31:35 12° WNW visible
20 Mar -2.4 19:06:50 10° WNW 19:09:58 33° N 19:13:05 10° ENE visible
20 Mar -2.1 20:43:58 10° WNW 20:46:14 34° NNW 20:46:14 34° NNW visible
21 Mar -2.8 19:56:40 10° WNW 19:59:53 38° NNE 20:00:52 30° NE visible
21 Mar -0.4 21:33:30 10° WNW 21:33:51 12° WNW 21:33:51 12° WNW visible
22 Mar -2.5 19:09:19 10° WNW 19:12:29 34° N 19:15:29 11° ENE visible
22 Mar -2.4 20:46:12 10° WNW 20:48:28 39° WNW 20:48:28 39° WNW visible
23 Mar -3.5 19:58:52 10° WNW 20:02:14 61° NNE 20:03:04 44° E visible
23 Mar -0.3 21:35:59 10° W 21:36:03 10° W 21:36:03 10° W visible
